TimeMDT,TemperatureF,Dew PointF,Humidity,Sea Level PressureIn,VisibilityMPH,Wind Direction,Wind SpeedMPH,Gust SpeedMPH,PrecipitationIn,Events,Conditions,WindDirDegrees,DateUTC
12:15 AM,73.4,51.8,47,29.76,10.0,SE,11.5,-,N/A,,Clear,140,2013-09-16 06:15:00
12:35 AM,73.4,51.8,47,29.76,10.0,SSE,6.9,-,N/A,,Clear,150,2013-09-16 06:35:00
12:55 AM,75.2,51.8,44,29.76,10.0,SE,10.4,-,N/A,,Clear,140,2013-09-16 06:55:00
1:15 AM,75.2,50.0,41,29.77,10.0,SSE,9.2,-,N/A,,Clear,150,2013-09-16 07:15:00
1:35 AM,75.2,50.0,41,29.77,10.0,SSE,13.8,-,N/A,,Clear,150,2013-09-16 07:35:00
1:55 AM,75.2,50.0,41,29.78,10.0,South,12.7,17.3,N/A,,Clear,170,2013-09-16 07:55:00
2:15 AM,73.4,51.8,47,29.79,10.0,South,15.0,-,N/A,,Clear,170,2013-09-16 08:15:00
2:35 AM,73.4,51.8,47,29.79,10.0,South,12.7,-,N/A,,Clear,170,2013-09-16 08:35:00
2:55 AM,73.4,50.0,44,29.80,10.0,South,15.0,-,N/A,,Clear,170,2013-09-16 08:55:00
3:15 AM,73.4,50.0,44,29.80,10.0,South,13.8,-,N/A,,Clear,190,2013-09-16 09:15:00
3:35 AM,73.4,50.0,44,29.81,10.0,South,10.4,-,N/A,,Clear,190,2013-09-16 09:35:00
3:55 AM,71.6,51.8,50,29.81,10.0,SSW,8.1,-,N/A,,Clear,200,2013-09-16 09:55:00
4:15 AM,69.8,51.8,53,29.82,10.0,NW,8.1,-,N/A,,Clear,310,2013-09-16 10:15:00
4:35 AM,66.2,51.8,60,29.83,10.0,NW,4.6,-,N/A,,Clear,320,2013-09-16 10:35:00
4:55 AM,64.4,51.8,64,29.83,10.0,Calm,Calm,-,N/A,,Clear,0,2013-09-16 10:55:00
5:15 AM,64.4,51.8,64,29.84,10.0,Calm,Calm,-,N/A,,Clear,0,2013-09-16 11:15:00
5:35 AM,62.6,50.0,63,29.84,10.0,Calm,Calm,-,N/A,,Clear,0,2013-09-16 11:35:00
5:55 AM,62.6,50.0,63,29.84,10.0,SE,3.5,-,N/A,,Clear,140,2013-09-16 11:55:00
6:15 AM,60.8,50.0,68,29.85,10.0,Calm,Calm,-,N/A,,Clear,0,2013-09-16 12:15:00
6:35 AM,60.8,50.0,68,29.86,10.0,Calm,Calm,-,N/A,,Clear,0,2013-09-16 12:35:00
6:55 AM,62.6,50.0,63,29.86,10.0,Calm,Calm,-,N/A,,Clear,0,2013-09-16 12:55:00
7:15 AM,60.8,50.0,68,29.87,10.0,East,3.5,-,N/A,,Clear,100,2013-09-16 13:15:00
7:35 AM,60.8,48.2,63,29.88,10.0,Calm,Calm,-,N/A,,Clear,0,2013-09-16 13:35:00
7:55 AM,60.8,50.0,68,29.89,10.0,Calm,Calm,-,N/A,,Clear,0,2013-09-16 13:55:00
8:15 AM,62.6,51.8,68,29.90,10.0,Calm,Calm,-,N/A,,Clear,0,2013-09-16 14:15:00
8:35 AM,62.6,51.8,68,29.90,10.0,Calm,Calm,-,N/A,,Clear,0,2013-09-16 14:35:00
8:55 AM,64.4,51.8,64,29.90,10.0,Calm,Calm,-,N/A,,Clear,0,2013-09-16 14:55:00
9:15 AM,66.2,51.8,60,29.91,10.0,Calm,Calm,-,N/A,,Clear,0,2013-09-16 15:15:00
9:35 AM,69.8,53.6,56,29.91,10.0,Calm,Calm,-,N/A,,Clear,0,2013-09-16 15:35:00
9:55 AM,71.6,53.6,53,29.92,10.0,NE,3.5,-,N/A,,Clear,50,2013-09-16 15:55:00
10:15 AM,73.4,51.8,47,29.92,10.0,Calm,Calm,-,N/A,,Clear,0,2013-09-16 16:15:00
10:35 AM,75.2,46.4,36,29.92,10.0,NNW,3.5,-,N/A,,Clear,340,2013-09-16 16:35:00
10:55 AM,75.2,41.0,29,29.92,10.0,WNW,6.9,-,N/A,,Clear,300,2013-09-16 16:55:00
11:15 AM,77.0,39.2,26,29.92,10.0,NNW,5.8,-,N/A,,Clear,340,2013-09-16 17:15:00
11:35 AM,77.0,39.2,26,29.92,10.0,WNW,8.1,-,N/A,,Clear,290,2013-09-16 17:35:00
11:55 AM,78.8,41.0,26,29.92,10.0,NW,6.9,-,N/A,,Clear,320,2013-09-16 17:55:00
12:15 PM,78.8,39.2,24,29.91,10.0,NNW,8.1,-,N/A,,Clear,340,2013-09-16 18:15:00
12:35 PM,80.6,41.0,24,29.91,10.0,North,10.4,-,N/A,,Clear,350,2013-09-16 18:35:00
12:55 PM,80.6,41.0,24,29.91,10.0,North,8.1,-,N/A,,Clear,350,2013-09-16 18:55:00
1:15 PM,80.6,42.8,26,29.90,10.0,NNE,6.9,-,N/A,,Clear,20,2013-09-16 19:15:00
1:35 PM,80.6,42.8,26,29.89,10.0,NW,8.1,-,N/A,,Clear,310,2013-09-16 19:35:00
1:55 PM,82.4,42.8,25,29.89,10.0,North,6.9,-,N/A,,Clear,360,2013-09-16 19:55:00
2:15 PM,82.4,41.0,23,29.88,10.0,North,6.9,-,N/A,,Clear,10,2013-09-16 20:15:00
2:35 PM,82.4,39.2,21,29.87,10.0,NNW,8.1,-,N/A,,Clear,340,2013-09-16 20:35:00
2:55 PM,82.4,39.2,21,29.86,10.0,NNW,8.1,-,N/A,,Clear,330,2013-09-16 20:55:00
3:15 PM,82.4,39.2,21,29.85,10.0,NNW,6.9,-,N/A,,Clear,340,2013-09-16 21:15:00
3:35 PM,84.2,39.2,20,29.84,10.0,NNW,8.1,-,N/A,,Clear,340,2013-09-16 21:35:00
3:55 PM,82.4,37.4,20,29.84,10.0,NW,4.6,-,N/A,,Clear,320,2013-09-16 21:55:00
4:15 PM,84.2,39.2,20,29.83,10.0,NNE,5.8,-,N/A,,Clear,30,2013-09-16 22:15:00
4:35 PM,82.4,37.4,20,29.82,10.0,NNE,3.5,-,N/A,,Clear,20,2013-09-16 22:35:00
4:55 PM,84.2,39.2,20,29.81,10.0,North,4.6,-,N/A,,Clear,360,2013-09-16 22:55:00
5:15 PM,84.2,37.4,19,29.80,10.0,NE,5.8,-,N/A,,Clear,50,2013-09-16 23:15:00
5:35 PM,84.2,39.2,20,29.80,10.0,NNE,6.9,-,N/A,,Clear,20,2013-09-16 23:35:00
5:55 PM,84.2,39.2,20,29.79,10.0,North,11.5,-,N/A,,Clear,10,2013-09-16 23:55:00
6:15 PM,84.2,39.2,20,29.78,10.0,North,11.5,-,N/A,,Clear,360,2013-09-17 00:15:00
6:35 PM,82.4,39.2,21,29.77,10.0,NNW,11.5,-,N/A,,Clear,340,2013-09-17 00:35:00
6:55 PM,80.6,39.2,23,29.77,10.0,NNW,10.4,-,N/A,,Clear,330,2013-09-17 00:55:00
7:15 PM,78.8,39.2,24,29.77,10.0,NW,11.5,-,N/A,,Clear,320,2013-09-17 01:15:00
7:35 PM,77.0,39.2,26,29.77,10.0,NW,9.2,-,N/A,,Clear,310,2013-09-17 01:35:00
7:55 PM,75.2,37.4,25,29.77,10.0,NW,9.2,-,N/A,,Clear,310,2013-09-17 01:55:00
8:15 PM,73.4,39.2,29,29.77,10.0,NW,9.2,-,N/A,,Clear,310,2013-09-17 02:15:00
8:35 PM,71.6,41.0,33,29.77,10.0,NNW,6.9,-,N/A,,Clear,330,2013-09-17 02:35:00
8:55 PM,71.6,39.2,31,29.77,10.0,North,6.9,-,N/A,,Clear,350,2013-09-17 02:55:00
9:15 PM,69.8,41.0,35,29.77,10.0,NNW,5.8,-,N/A,,Clear,340,2013-09-17 03:15:00
9:35 PM,66.2,41.0,40,29.78,10.0,North,3.5,-,N/A,,Clear,350,2013-09-17 03:35:00
9:55 PM,66.2,42.8,43,29.78,10.0,NW,4.6,-,N/A,,Clear,310,2013-09-17 03:55:00
10:15 PM,69.8,42.8,38,29.77,10.0,NW,5.8,-,N/A,,Clear,310,2013-09-17 04:15:00
10:35 PM,66.2,42.8,43,29.77,10.0,WSW,3.5,-,N/A,,Clear,240,2013-09-17 04:35:00
10:55 PM,64.4,42.8,45,29.77,10.0,SW,5.8,-,N/A,,Clear,230,2013-09-17 04:55:00
11:15 PM,64.4,42.8,45,29.77,10.0,WSW,3.5,-,N/A,,Clear,240,2013-09-17 05:15:00
11:35 PM,64.4,42.8,45,29.77,10.0,WSW,3.5,-,N/A,,Clear,240,2013-09-17 05:35:00
11:55 PM,62.6,42.8,48,29.77,10.0,NW,9.2,-,N/A,,Clear,320,2013-09-17 05:55:00